Hourly Weather Roundup
Issued by NWS Central Illinois

Current Version | Previous Version | Text Only | Print | Product List | Glossary On
Versions: 1 2 3 4 5 6 7 8 9 10 11 12 13 14 15 16 17 18 19 20 21 22 23 24 25 26 27 28 29 30 31 32 33 34 35 36 37 38 39 40 41 42 43 44 45 46 47 48 49 50
000
NZUS43 KILX 020810
HWRILX

AREA WEATHER ROUNDUP
NATIONAL WEATHER SERVICE, LINCOLN IL
300 AM CDT WED SEP 02 2015


CITY           SKY/WX    TMP DP  RH WIND       PRES   REMARKS
BLOOMINGTON    CLEAR     73  71  93 SW7       30.07F
CHAMPAIGN      CLEAR     70  68  93 S5        30.08S FOG
DANVILLE       HVY RAIN  65  65 100 CALM      30.05S
DECATUR        CLEAR     73  68  84 SW6       30.07S
EFFINGHAM      CLEAR     67  65  91 CALM      30.09S
FLORA          CLEAR     67  65  94 CALM      30.08F FOG
GALESBURG      CLEAR     70  67  92 CALM      30.03S
JACKSONVILLE   CLEAR     75  71  87 S6        30.05S
LACON          CLEAR     71  68  88 SE3       30.03S
LAWRENCEVILLE  CLEAR     68  67  96 CALM      30.09R FOG
LITCHFIELD     CLEAR     69  67  93 S5        30.07S
$$


CITY           SKY/WX    TMP DP  RH WIND       PRES   REMARKS
LINCOLN        CLEAR     70  67  89 CALM      30.05S
MACOMB         CLEAR     73  69  86 SW5       30.05S
MATTOON        HAZE      73  67  81 SW6       30.06F VSB 1
MT CARMEL AP   CLEAR     64  63  94 CALM      30.08S FOG
OLNEY-NOBLE AP   N/A     64  64 100 CALM      30.08S FOG
PARIS          CLEAR     67  66  97 CALM      30.09R
PEORIA         CLEAR     74  68  81 S6        30.04F
PONTIAC        CLEAR     73  71  93 SW5       30.05F
RANTOUL        CLEAR     73  70  92 SW7       30.07S
ROBINSON       CLEAR     65  64  97 SE3       30.09S FOG
SPRINGFIELD    CLEAR     75  70  84 SW7       30.05F
TAYLORVILLE    CLEAR     70  68  94 S5        30.06S
$$

...REGIONAL REPORTS...


CITY           SKY/WX    TMP DP  RH WIND       PRES   REMARKS
CHICAGO O`HARE PTCLDY    74  69  85 SW5       30.02S
KANKAKEE       CLEAR     68  67  95 CALM      30.06S
MOLINE         CLEAR     72  67  84 CALM      30.01S
MOUNT STERLING CLEAR     72  69  92 SW5       30.04S
MOUNT VERNON     N/A     66  61  82 CALM      30.09S VSB 3/4
PITTSFIELD     CLEAR     72  69  90 CALM      30.06R
QUINCY         CLEAR     73  68  84 S6        30.04S
ROCKFORD       PTCLDY    70  67  90 S6        30.03S
$$


CITY           SKY/WX    TMP DP  RH WIND       PRES   REMARKS
BURLINGTON     CLEAR     71  69  93 S7        30.02S
CEDAR RAPIDS   CLEAR     70  69  97 S6        29.99S
DES MOINES     TSTM      75  68  78 S12       29.96F
KIRKSVILLE     CLEAR     73  67  81 S8        30.02F
OTTUMWA        CLEAR     70  69  97 S7        29.98S
ST LOUIS       CLEAR     78  68  71 CALM      30.06F HX  80
$$


CITY           SKY/WX    TMP DP  RH WIND       PRES   REMARKS
TERRE HAUTE    CLEAR     65  64  97 CALM      30.08F FOG
EVANSVILLE     CLEAR     70  68  93 NE3       30.09S FOG
INDIANAPOLIS   CLEAR     70  66  87 SW5       30.08S
LAFAYETTE      CLEAR     68  67  96 CALM      30.07S FOG
MADISON        MOCLDY    75  69  81 SW3       29.99S
MILWAUKEE      PTCLDY    75  69  81 SW6       29.99F
$$





USA.gov is the U.S. government's official web portal to all federal, state and local government web resources and services.